CW3094 Weather Reports


Display with metric or nautical units.
time (UTC)temp
F
wind
direction
speed
MPH
gust
MPH
rain 1hr
in
rain 24hr
in
rain mn
in
humidity
%
barometer
mb
20180525004404 64 268 0.0 0.0 0.00 0.00 0.00 61 1017.4
20180525003405 65 268 0.0 0.0 0.00 0.00 0.00 60 1017.3
20180525002403 65 268 0.0 0.0 0.00 0.00 0.00 60 1017.3
20180525001405 66 268 0.0 0.0 0.00 0.00 0.00 58 1017.2
20180525000406 67 268 0.0 0.0 0.00 0.00 0.00 55 1017.5
20180524235402 67 268 0.0 0.0 0.00 0.00 0.00 55 1017.3
20180524234403 68 268 0.0 1.0 0.00 0.00 0.00 54 1017.3
20180524233405 69 254 0.0 2.0 0.00 0.00 0.00 54 1017.1
20180524232403 70 241 0.0 3.0 0.00 0.00 0.00 56 1017.1
20180524231404 70 306 0.0 0.0 0.00 0.00 0.00 54 1017.0
20180524230405 71 306 0.0 0.0 0.00 0.00 0.00 53 1017.1
20180524225401 72 306 0.0 2.0 0.00 0.00 0.00 50 1017.0
20180524224403 72 28 0.0 5.0 0.00 0.00 0.00 46 1017.1
20180524223405 73 261 0.0 5.0 0.00 0.00 0.00 44 1017.1
20180524222403 74 275 1.0 3.0 0.00 0.00 0.00 44 1017.1
20180524221404 75 313 1.0 5.0 0.00 0.00 0.00 44 1017.2
20180524220405 75 335 2.0 8.0 0.00 0.00 0.00 39 1017.3
20180524215402 77 265 1.0 7.0 0.00 0.00 0.00 40 1017.3
20180524214404 78 254 1.0 5.0 0.00 0.00 0.00 40 1017.4
20180524213404 79 137 1.0 7.0 0.00 0.00 0.00 35 1017.6
20180524212402 80 7 3.0 7.0 0.00 0.00 0.00 37 1017.6
20180524211404 81 278 1.0 6.0 0.00 0.00 0.00 37 1017.8
20180524210406 81 304 1.0 6.0 0.00 0.00 0.00 33 1017.9
20180524205402 81 331 2.0 5.0 0.00 0.00 0.00 31 1017.9
20180524204404 82 274 1.0 7.0 0.00 0.00 0.00 36 1018.0
20180524203405 82 307 4.0 9.0 0.00 0.00 0.00 37 1018.1
20180524202402 82 288 3.0 7.0 0.00 0.00 0.00 39 1018.1
20180524201404 82 297 2.0 8.0 0.00 0.00 0.00 37 1018.2
20180524200406 81 15 4.0 9.0 0.00 0.00 0.00 31 1018.2
20180524195404 82 248 5.0 8.0 0.00 0.00 0.00 37 1018.4
20180524194403 82 320 2.0 6.0 0.00 0.00 0.00 36 1018.4
20180524193406 81 21 5.0 7.0 0.00 0.00 0.00 31 1018.5
20180524192403 81 284 3.0 8.0 0.00 0.00 0.00 34 1018.4
20180524191404 82 17 3.0 9.0 0.00 0.00 0.00 32 1018.5
20180524190404 79 340 1.0 9.0 0.00 0.00 0.00 35 1018.5
20180524185403 78 7 6.0 12.0 0.00 0.00 0.00 30 1018.6
20180524184404 80 13 4.0 10.0 0.00 0.00 0.00 30 1018.8
20180524183405 79 2 3.0 7.0 0.00 0.00 0.00 33 1018.9
20180524182402 79 8 4.0 10.0 0.00 0.00 0.00 33 1019.0
20180524181404 78 274 3.0 12.0 0.00 0.00 0.00 32 1019.1
20180524180406 77 309 3.0 10.0 0.00 0.00 0.00 40 1019.2
20180524175402 78 17 4.0 12.0 0.00 0.00 0.00 35 1019.4
20180524174403 77 57 3.0 13.0 0.00 0.00 0.00 36 1019.4
20180524173400 76 41 3.0 10.0 0.00 0.00 0.00 35 1019.5
20180524172403 76 335 3.0 12.0 0.00 0.00 0.00 35 1019.6
20180524171403 75 16 3.0 13.0 0.00 0.00 0.00 36 1019.6
20180524170401 75 331 4.0 12.0 0.00 0.00 0.00 36 1019.8
20180524165402 74 332 6.0 15.0 0.00 0.00 0.00 34 1019.8
20180524164404 74 7 4.0 13.0 0.00 0.00 0.00 35 1019.9
20180524163401 73 351 6.0 14.0 0.00 0.00 0.00 29 1020.0
20180524162402 73 354 5.0 12.0 0.00 0.00 0.00 32 1020.0
20180524161404 72 15 2.0 10.0 0.00 0.00 0.00 38 1019.9
20180524160359 72 301 2.0 15.0 0.00 0.00 0.00 39 1020.0
20180524155401 71 315 4.0 13.0 0.00 0.00 0.00 34 1020.1
20180524154402 71 6 5.0 15.0 0.00 0.00 0.00 29 1020.3
20180524153359 70 338 4.0 9.0 0.00 0.00 0.00 35 1020.3
20180524152401 70 299 5.0 22.0 0.00 0.00 0.00 33 1020.2
20180524151404 70 307 7.0 15.0 0.00 0.00 0.00 34 1020.2
20180524150400 69 1 7.0 13.0 0.00 0.00 0.00 34 1020.4
20180524145402 69 342 6.0 16.0 0.00 0.00 0.00 33 1020.4
20180524144403 68 355 6.0 12.0 0.00 0.00 0.00 36 1020.2
20180524143400 68 313 4.0 13.0 0.00 0.00 0.00 39 1020.2
20180524142402 67 323 5.0 13.0 0.00 0.00 0.00 38 1020.2
20180524141404 67 298 3.0 10.0 0.00 0.00 0.00 41 1020.1
20180524140401 66 349 3.0 14.0 0.00 0.00 0.00 44 1020.2
20180524135403 66 347 5.0 13.0 0.00 0.00 0.00 43 1020.1
20180524134404 65 343 6.0 14.0 0.00 0.00 0.00 43 1020.0
20180524133403 64 20 4.0 14.0 0.00 0.00 0.00 45 1020.0
20180524132404 64 347 3.0 14.0 0.00 0.00 0.00 49 1019.8
20180524131405 63 306 6.0 17.0 0.00 0.00 0.00 49 1019.8
20180524130402 63 323 1.0 12.0 0.00 0.00 0.00 55 1020.0
20180524125402 63 350 5.0 10.0 0.00 0.00 0.00 53 1020.1
20180524124403 62 345 3.0 14.0 0.00 0.00 0.00 57 1019.9
20180524123401 61 353 5.0 9.0 0.00 0.00 0.00 59 1019.9
20180524122403 61 342 4.0 14.0 0.00 0.00 0.00 61 1019.7
20180524121403 60 346 5.0 12.0 0.00 0.00 0.00 62 1019.6
20180524120359 59 331 5.0 13.0 0.00 0.00 0.00 66 1019.5
20180524115401 59 358 3.0 10.0 0.00 0.00 0.00 70 1019.4
20180524114403 59 345 2.0 9.0 0.00 0.00 0.00 74 1019.4
20180524113400 58 299 3.0 9.0 0.00 0.00 0.00 78 1019.4
20180524112402 58 305 3.0 8.0 0.00 0.00 0.00 79 1019.4
20180524111403 57 328 2.0 8.0 0.00 0.00 0.00 82 1019.3
20180524110400 57 334 3.0 8.0 0.00 0.00 0.00 84 1019.1
20180524105402 57 1 3.0 8.0 0.00 0.00 0.00 86 1019.0
20180524104403 56 347 2.0 10.0 0.00 0.00 0.00 89 1018.9
20180524103359 56 343 5.0 13.0 0.00 0.00 0.00 91 1018.7
20180524102402 55 29 3.0 12.0 0.00 0.00 0.00 95 1018.6
20180524101403 55 338 3.0 7.0 0.00 0.00 0.00 96 1018.4
20180524100402 55 1 3.0 10.0 0.00 0.00 0.00 95 1018.3
20180524095402 55 0 2.0 9.0 0.00 0.00 0.00 96 1018.1
20180524094404 56 298 2.0 9.0 0.00 0.00 0.00 95 1017.8
20180524093403 55 307 4.0 8.0 0.00 0.00 0.00 96 1017.7
20180524092403 55 314 3.0 6.0 0.00 0.00 0.00 97 1017.6
20180524091404 55 18 2.0 8.0 0.00 0.00 0.00 97 1017.6
20180524090401 55 287 2.0 8.0 0.00 0.00 0.00 97 1017.4
20180524085403 56 295 2.0 6.0 0.00 0.00 0.00 97 1017.3
20180524084404 56 306 3.0 9.0 0.00 0.00 0.00 97 1017.1
20180524083402 56 315 1.0 10.0 0.00 0.00 0.00 96 1017.0
20180524082404 56 305 2.0 6.0 0.00 0.00 0.00 96 1016.8
20180524081405 56 285 2.0 6.0 0.00 0.00 0.00 97 1016.7
20180524080401 56 287 2.0 6.0 0.00 0.00 0.00 97 1016.6
20180524075403 56 287 1.0 10.0 0.00 0.00 0.00 97 1016.4
20180524074405 55 304 2.0 9.0 0.00 0.00 0.00 97 1016.3
20180524073400 55 298 2.0 5.0 0.00 0.00 0.00 97 1016.2
20180524072402 55 311 2.0 7.0 0.00 0.00 0.00 97 1016.2
20180524071404 56 302 1.0 2.0 0.00 0.00 0.00 97 1016.1
20180524070401 55 267 0.0 2.0 0.00 0.00 0.00 97 1016.1
20180524065402 56 270 0.0 1.0 0.00 0.00 0.00 96 1016.0
20180524064404 55 289 0.0 0.0 0.00 0.00 0.00 96 1016.0
20180524063359 56 289 0.0 0.0 0.00 0.00 0.00 96 1015.9
20180524062401 58 289 0.0 1.0 0.00 0.00 0.00 95 1015.9
20180524061403 57 281 1.0 1.0 0.00 0.00 0.00 95 1016.0
20180524060400 58 251 0.0 1.0 0.00 0.00 0.00 94 1016.0
20180524055402 57 250 0.0 0.0 0.00 0.00 0.00 93 1016.0
20180524054404 57 250 0.0 0.0 0.00 0.00 0.00 93 1015.9
20180524053403 56 250 0.0 0.0 0.00 0.00 0.00 92 1015.9
20180524052404 58 250 0.0 0.0 0.00 0.00 0.00 91 1016.0
20180524051406 57 250 0.0 0.0 0.00 0.00 0.00 90 1016.1
20180524050402 57 250 0.0 1.0 0.00 0.00 0.00 88 1016.0
20180524045404 60 285 0.0 1.0 0.00 0.00 0.00 87 1016.1
20180524044404 59 269 0.0 3.0 0.00 0.00 0.00 86 1016.0
20180524043402 59 279 1.0 2.0 0.00 0.00 0.00 85 1015.9
20180524042402 60 349 0.0 2.0 0.00 0.00 0.00 83 1015.9
20180524041404 60 275 1.0 2.0 0.00 0.00 0.00 82 1015.8
20180524040400 60 352 1.0 5.0 0.00 0.00 0.00 81 1015.8
20180524035402 60 270 0.0 3.0 0.00 0.00 0.00 80 1015.8
20180524034404 62 305 0.0 1.0 0.00 0.00 0.00 78 1015.8
20180524033402 64 270 0.0 3.0 0.00 0.00 0.00 76 1015.7
20180524032404 64 296 0.0 6.0 0.00 0.00 0.00 75 1015.6
20180524031405 63 349 0.0 5.0 0.00 0.00 0.00 74 1015.6
20180524030401 64 299 2.0 6.0 0.00 0.00 0.00 73 1015.7
20180524025404 64 243 0.0 5.0 0.00 0.00 0.00 74 1015.6
20180524024404 65 198 0.0 6.0 0.00 0.00 0.00 72 1015.6
20180524023400 63 305 2.0 7.0 0.00 0.00 0.00 71 1015.5
20180524022403 63 269 2.0 6.0 0.00 0.00 0.00 70 1015.4
20180524021404 63 294 2.0 9.0 0.00 0.00 0.00 69 1015.3
20180524020401 65 349 2.0 7.0 0.00 0.00 0.00 68 1015.1
20180524015403 66 322 2.0 7.0 0.00 0.00 0.00 68 1014.9
20180524014405 64 280 2.0 6.0 0.00 0.00 0.00 68 1014.9
20180524013401 64 291 2.0 8.0 0.00 0.00 0.00 67 1014.7
20180524012402 65 306 1.0 6.0 0.00 0.00 0.00 67 1014.5
20180524011404 66 102 0.0 3.0 0.00 0.00 0.00 66 1014.4
20180524010402 67 261 0.0 9.0 0.00 0.00 0.00 65 1014.3
20180524005402 65 309 1.0 6.0 0.00 0.00 0.00 64 1014.1